Regional Weather Roundup
Issued by NWS Raleigh/Durham, NC

Home | Current Version | Previous Version | Text Only | Print | Product List | Glossary On
Versions: 1 2 3 4 5 6 7 8 9 10 11 12 13 14 15 16 17 18 19 20 21 22 23 24 25 26 27
000
ASUS42 KRAH 270510
RWRRAH
NORTH CAROLINA WEATHER ROUNDUP
NATIONAL WEATHER SERVICE RALEIGH NC
100 AM EDT SAT AUG 27 2016

NOTE: "FAIR" INDICATES FEW OR NO CLOUDS BELOW 12,000 FEET WITH NO
SIGNIFICANT WEATHER AND/OR OBSTRUCTIONS TO VISIBILITY.

NCZ001-053-055-056-065-067-270600-
WESTERN NORTH CAROLINA

CITY           SKY/WX    TMP DP  RH WIND       PRES   REMARKS
ASHEVILLE      CLEAR     70  66  87 CALM      30.22S
JEFFERSON      CLOUDY    67  66  94 W3        30.28F
MORGANTON      CLEAR     71  71  98 CALM      30.20S FOG
HICKORY        CLEAR     76  72  87 CALM      30.14F
RUTHERFORDTON    N/A     74  73  97 CALM      30.15S
MOUNT AIRY     CLEAR     74  72  93 CALM      30.17S FOG
BOONE          CLEAR     64  64 100 CALM      30.29S FOG
$$

NCZ021-022-025-041-071-084-088-270600-
CENTRAL NORTH CAROLINA

CITY           SKY/WX    TMP DP  RH WIND       PRES   REMARKS
CHARLOTTE      PTCLDY    78  71  79 CALM      30.12S
GREENSBORO     CLEAR     79  72  79 CALM      30.12S
WINSTON-SALEM  CLEAR     79  71  76 CALM      30.14S
RALEIGH-DURHAM PTCLDY    80  73  79 CALM      30.10S
FORT BRAGG     CLEAR     81  73  76 SW3       30.09S
FAYETTEVILLE   CLEAR     79  72  79 SW3       30.09S
BURLINGTON     CLEAR     77  74  90 NW3       30.10F
LAURINBURG     NOT AVBL
$$

NCZ011-015-027-028-043-044-047-080-103-270600-
NORTHEASTERN NORTH CAROLINA

CITY           SKY/WX    TMP DP  RH WIND       PRES   REMARKS
ROCKY MT-WILSO CLEAR     78  75  90 S6        30.09S
GREENVILLE     CLEAR     77  73  88 CALM      30.10S
WASHINGTON     CLEAR     76  73  88 SW3       30.09S
ELIZABETH CITY CLEAR     75  73  93 S3        30.08S
MANTEO         CLEAR     79  74  85 SW7       30.08S
CAPE HATTERAS  CLEAR     81  71  71 S5        30.08S
$$

NCZ078-087-090-091-093-098-101-270600-
SOUTHEASTERN NORTH CAROLINA

CITY           SKY/WX    TMP DP  RH WIND       PRES   REMARKS
LUMBERTON      CLEAR     74  72  93 CALM      30.09R
GOLDSBORO      CLEAR     75  68  78 CALM      30.09
KINSTON        CLEAR     75  73  92 S3        30.09F
KENANSVILLE    CLEAR     73  72  94 CALM      30.10S
NEW BERN       CLEAR     74  71  91 CALM      30.10S
CHERRY POINT   CLEAR     74  71  91 CALM      30.10R
BEAUFORT       CLEAR     75  71  87 CALM      30.08S
JACKSONVILLE   CLEAR     73  71  93 CALM      30.08S
WILMINGTON     CLEAR     74  71  91 CALM      30.09R
$$





USA.gov is the U.S. government's official web portal to all federal, state and local government web resources and services.